Other Public Products
Issued by NWS Charleston, SC

Home | Current Version | Previous Version | Text Only | Print | Product List | Glossary On
Versions: 1 2 3 4 5 6 7 8 9 10 11 12 13 14 15 16 17 18 19 20 21 22 23 24 25 26 27 28 29 30 31 32 33 34 35 36 37 38 39 40 41 42 43 44 45 46 47 48 49 50
000
FPUS82 KCHS 191812
OPUCHS

TEST...KCHS/KSAV Gateway Observations...TEST
National Weather Service Charleston SC
100 PM EST THU JAN 19 2017

NOTE: "fair" indicates few or no clouds below 12,000 feet with no
significant weather and/or obstructions to visibility.

SCZ050-WAZ558-NCZ071-TXZ119-213-PAZ071-DCZ001-FLZ074-172-MI076-
NYZ176-178-MAZ016-IL014-TNZ027-NJZ106-GAZ044-MD014-191900-
...Gateway Observations for Charleston International...

CITY           SKY/WX    TMP DP  RH WIND       PRES   REMARKS
Chas Airport   PTSUNNY   70  54  56 E9        30.02F
6HR MIN TEMP:  48; 6HR MAX TEMP:  71;

Seattle        PTSUNNY   50  41  71 S13       29.52R
6HR MIN TEMP:  43; 6HR MAX TEMP:  50; 6HR PCP:  0.01;

Charlotte      PTSUNNY   61  37  41 SE5       30.06F
6HR MIN TEMP:  34; 6HR MAX TEMP:  61;

Dallas DFW     MOSUNNY   58  50  75 S14       29.76F
6HR MIN TEMP:  48; 6HR MAX TEMP:  58;

Dallas Love    PTSUNNY   57  49  74 S12       29.78F
6HR MIN TEMP:  49; 6HR MAX TEMP:  57;

Philladelphia  PTSUNNY   48  35  60 NW12      30.03F
6HR MIN TEMP:  43; 6HR MAX TEMP:  49;

Wash National  CLOUDY    52  37  56 NW6       30.07F
6HR MIN TEMP:  45; 6HR MAX TEMP:  52;

Baltimore      CLOUDY    49  36  61 W7        30.05F
6HR MIN TEMP:  43; 6HR MAX TEMP:  49;

Miami          MOSUNNY   80  59  48 SW7       30.03F
6HR MIN TEMP:  66; 6HR MAX TEMP:  83;

Detroit        CLOUDY    37  32  82 S5        30.02F WCI  33
6HR MIN TEMP:  34; 6HR MAX TEMP:  37;

Newark         PTSUNNY   48  35  60 NW9       30.00F
6HR MIN TEMP:  39; 6HR MAX TEMP:  50;

Laguardia      MOSUNNY   50  35  56 NW13      29.99F
6HR MIN TEMP:  43; 6HR MAX TEMP:  50;

J F K          PTSUNNY   53  34  48 NW12G17   29.99F
6HR MIN TEMP:  37; 6HR MAX TEMP:  53;

Boston Logan   MOSUNNY   45  35  68 NW12      29.95F
6HR MIN TEMP:  33; 6HR MAX TEMP:  45;

Ft. Lauderdale MOSUNNY   78  61  55 CALM      30.02F
6HR MIN TEMP:  63; 6HR MAX TEMP:  80;

Chicago O`Hare CLOUDY    39  36  89 S5        29.94F FOG     WCI  36
6HR MIN TEMP:  33; 6HR MAX TEMP:  39;

Chicago Midway CLOUDY    39  35  86 E3        29.95F FOG
6HR MIN TEMP:  33; 6HR MAX TEMP:  39;

Houston Bush   RAIN      60  59  96 SW6       29.88F FOG
6HR MIN TEMP:  55; 6HR MAX TEMP:  60; 6HR PCP:  0.41;

Houston Hobby  RAIN      60  59  96 SE9       29.88F
6HR MIN TEMP:  56; 6HR MAX TEMP:  60; 6HR PCP:  0.56;

Nashville      LGT RAIN  54  51  90 S3        29.91F FOG
6HR MIN TEMP:  47; 6HR MAX TEMP:  54; 6HR PCP:  0.02;

Atlanta        PTSUNNY   70  57  63 S8        30.00F
6HR MIN TEMP:  56; 6HR MAX TEMP:  71;


$$

GAZ044-118-TXZ119-213-NCZ071-DCZ001-MDZ014-506-PAZ021-071-NJZ106-
NYZ176-178-MAZ106-OHZ011-021-055-MIZ076-KYZ091-ILZ014-INZ047-
MNZ060-191900-
...Gateway Observations for Savannah International...

CITY           SKY/WX    TMP DP  RH WIND       PRES   REMARKS
Savannah Arpt  PTSUNNY   77  45  32 W7        30.00F
6HR MIN TEMP:  55; 6HR MAX TEMP:  77;

Atlanta        PTSUNNY   70  57  63 S8        30.00F
6HR MIN TEMP:  56; 6HR MAX TEMP:  71;

Charlotte      PTSUNNY   61  37  41 SE5       30.06F
6HR MIN TEMP:  34; 6HR MAX TEMP:  61;

Dallas DFW     MOSUNNY   58  50  75 S14       29.76F
6HR MIN TEMP:  48; 6HR MAX TEMP:  58;

Houston Bush   RAIN      60  59  96 SW6       29.88F FOG
6HR MIN TEMP:  55; 6HR MAX TEMP:  60; 6HR PCP:  0.41;

Wash National  CLOUDY    52  37  56 NW6       30.07F
6HR MIN TEMP:  45; 6HR MAX TEMP:  52;

Wash Dulles    CLOUDY    50  36  58 NW7       30.05F
6HR MIN TEMP:  42; 6HR MAX TEMP:  50;

Baltimore      CLOUDY    49  36  61 W7        30.05F
6HR MIN TEMP:  43; 6HR MAX TEMP:  49;

Philadelphia   PTSUNNY   48  35  60 NW12      30.03F
6HR MIN TEMP:  43; 6HR MAX TEMP:  49;

Newark         PTSUNNY   48  35  60 NW9       30.00F
6HR MIN TEMP:  39; 6HR MAX TEMP:  50;

Laguardia      MOSUNNY   50  35  56 NW13      29.99F
6HR MIN TEMP:  43; 6HR MAX TEMP:  50;

J F K          PTSUNNY   53  34  48 NW12G17   29.99F
6HR MIN TEMP:  37; 6HR MAX TEMP:  53;

Boston         MOSUNNY   45  35  68 NW12      29.95F
6HR MIN TEMP:  33; 6HR MAX TEMP:  45;

Pittsburg      CLOUDY    39  35  86 SE7       30.03F WCI  34
6HR MIN TEMP:  37; 6HR MAX TEMP:  39; 6HR PCP: TRACE;

Akron          CLOUDY    40  34  79 SW7       30.03F WCI  35
6HR MIN TEMP:  37; 6HR MAX TEMP:  40;

Cleveland      CLOUDY    41  34  76 W5        30.06F
6HR MIN TEMP:  38; 6HR MAX TEMP:  41;

Cincinnati     CLOUDY    47  40  76 SE7       30.00S
6HR MIN TEMP:  37; 6HR MAX TEMP:  47;

Columbus         N/A     41  37  86 SE5       30.01F
Detroit        CLOUDY    37  32  82 S5        30.02F WCI  33
6HR MIN TEMP:  34; 6HR MAX TEMP:  37;

Chicago O`Hare CLOUDY    39  36  89 S5        29.94F FOG     WCI  36
6HR MIN TEMP:  33; 6HR MAX TEMP:  39;

Minneapolis    MOSUNNY   35  31  85 SE10      29.78F WCI  27
6HR MIN TEMP:  30; 6HR MAX TEMP:  36;

Indianapolis   CLOUDY    44  39  82 SE9       29.95F
6HR MIN TEMP:  34; 6HR MAX TEMP:  44;


$$




USA.gov is the U.S. government's official web portal to all federal, state and local government web resources and services.